Regional Weather Roundup
Issued by NWS

Home | Current Version | Previous Version | Graphics & Text | Print | Product List | Glossary On
Versions: 1 2 3 4 5 6 7 8 9 10 11 12 13 14 15 16 17 18 19 20 21 22 23 24 25 26 27 28 29 30 31 32 33 34 35 36 37 38 39 40 41 42 43 44 45 46 47 48 49 50
000
ASUS45 KBOU 011007
RWRCO

WEATHER ROUNDUP FOR COLORADO
NATIONAL WEATHER SERVICE DENVER/BOULDER CO
400 AM MDT WED APR 01 2015

NOTE: "FAIR" INDICATES FEW OR NO CLOUDS BELOW 12000 FEET WITH NO
SIGNIFICANT WEATHER AND/OR OBSTRUCTIONS TO VISIBILITY.

COZ001>005-013-030-031-011100-
...NORTHWEST COLORADO...

CITY           SKY/WX    TMP DP  RH WIND       PRES   REMARKS
CRAIG          MOCLDY    54  21  27 SW8       29.82S
HAYDEN         PTCLDY    52  18  25 NW3       29.84R
MEEKER         PTCLDY    49  20  31 W7        29.86R
MOUNT WERNER   NOT AVBL
STEAMBOAT SPGS PTCLDY    44  22  42 CALM      29.86S
WALDEN         PTCLDY    36  19  51 S9        29.88F
$$

COZ006>008-011-011100-
...WEST CENTRAL VALLEYS...

CITY           SKY/WX    TMP DP  RH WIND       PRES   REMARKS
GRAND JUNCTION CLEAR     51  20  29 E10       29.81S
MONTROSE       MOCLDY    52  24  33 S9        29.91F
EAGLE          PTCLDY    37  25  60 CALM      29.92S
RIFLE          PTCLDY    40  23  50 E6        29.85S
DELTA          CLOUDY    51  22  31 NE7       29.87F
NUCLA          MOCLDY    52  19  28 S6        29.95S
$$

COZ017>023-064>068-011100-
...SOUTHWEST COLORADO...

CITY           SKY/WX    TMP DP  RH WIND       PRES   REMARKS
DURANGO        CLOUDY    45  27  49 SE3       29.99F
CORTEZ         CLEAR     55  25  31 SW13      29.96S
PAGOSA SPRINGS CLOUDY    41  23  48 CALM      30.03F
TELLURIDE      NOT AVBL
WOLF CREEK PAS MOCLDY    32  21  64 SW29G40   30.18F WCI  18
$$

COZ009-010-012-014-032>034-037-058>063-011100-
...CENTRAL COLORADO...

CITY           SKY/WX    TMP DP  RH WIND       PRES   REMARKS
ASPEN          MOCLDY    45  23  42 S6        29.93F
BUENA VISTA    PTCLDY    33  24  69 SW6       29.95F WCI  27
COPPER MTN     PTCLDY    36  14  41 SW16G23   30.10F
BERTHOUD PASS  FAIR      30  23  74 W35G56    30.06F WCI  14
COTTONWOOD PAS PTCLDY    46  14  27 N9G24     30.00F
GUNNISON       PTCLDY    34  23  64 CALM      30.04S
KREMMLING      CLEAR     30  23  74 CALM      29.93F
LEADVILLE      NOT AVBL
SALIDA         PTCLDY    43  20  39 CALM      30.00F
SUNLIGHT       PTCLDY    37  21  52 SW3       30.08S
WILKERSON PASS CLEAR     32  16  51 SW9G20    30.07F WCI  24
$$

COZ069>075-011100-
...SAN LUIS VALLEY/SANGRE DE CRISTO MOUNTAINS...

CITY           SKY/WX    TMP DP  RH WIND       PRES   REMARKS
ALAMOSA        PTCLDY    30  20  66 E5        29.99F WCI  25
LA VETA PASS   PTCLDY    34  18  51 SW8       30.04F WCI  27
SAGUACHE       PTCLDY    36  19  51 N7        30.00F
$$

COZ035-036-038>040-011100-
...NORTHERN COLORADO FRONT RANGE...

CITY           SKY/WX    TMP DP  RH WIND       PRES   REMARKS
DENVER INTL AP PTCLDY    53  24  32 SW15      29.74F
DMNS CITY PARK   N/A     56  22  26 S7G13     29.74S
AURORA         PTCLDY    52  23  32 SW13      29.76F
FRONT RANGE AP CLEAR     54  27  35 S14       29.76S
ERIE MUNI ARPT PTCLDY    50  22  33 W3        29.73S
BOULDER MUN AP PTCLDY    54  23  30 S6        29.72F
CENTENNIAL     PTCLDY    54  22  28 S14       29.78F
BROOMFIELD     PTCLDY    52  21  30 W6        29.76F
FORT COLLINS   PTCLDY    46  27  46 S8        29.73S
LONGMONT       PTCLDY    56  24  29 S6        29.72F
$$

COZ041-046-047-076>085-087-088-011100-
...PIKES PEAK/PALMER DIVIDE AND SOUTHERN FOOTHILLS...

CITY           SKY/WX    TMP DP  RH WIND       PRES   REMARKS
COLO. SPRINGS  PTCLDY    47  22  37 VRB7      29.83F
A. F. ACADEMY  CLEAR     47  19  33 N7        29.83F
ELLICOTT       NOT AVBL
FALCON         CLEAR     45  21  38 NW7       29.86F
FORT CARSON    PTCLDY    43  25  48 E6        29.80F
LIMON          CLEAR     37  24  59 CALM      29.80F
MONUMENT HILL  CLEAR     39  21  48 S6        29.85F
TRINIDAD       CLEAR     44  21  40 W13       29.86F
$$

COZ042>045-048>051-090-091-011100-
...NORTHEAST COLORADO...

CITY           SKY/WX    TMP DP  RH WIND       PRES   REMARKS
GREELEY ARPT   PTCLDY    37  18  44 CALM      29.69F
AKRON          CLEAR     54  23  30 SW12      29.71F
BURLINGTON     CLEAR     50  43  77 S16       29.75F
WRAY           CLEAR     55  44  65 W6        29.70F
STERLING       CLEAR     43  27  52 SW6       29.68S
HOLYOKE        NOT AVBL
FORT MORGAN    CLEAR    N/A N/A N/A W5        29.70F
$$

COZ086-089-092>099-011100-
...SOUTHEAST COLORADO...

CITY           SKY/WX    TMP DP  RH WIND       PRES   REMARKS
PUEBLO         CLEAR     42  25  50 E3        29.78F
LA JUNTA       CLEAR     54  23  30 SW15      29.76F
LAMAR          CLEAR     51  34  52 NE3       29.74F
SPRINGFIELD      N/A     43  28  55 SW9       29.79F
$$



USA.gov is the U.S. government's official web portal to all federal, state and local government web resources and services.